QPF
0.00 0.00 0.00 0.00 0.00 0.01 0.03 0.04 0.03 0.03 0.05 0.12 0.11 0.04 0.01 0.01 0.00 0.00 0.00 0.00 0.00 0.00 0.00 0.00 0.01 0.02 0.03 0.01 0.00 0.00 0.00 0.00 0.00 0.00 0.00 0.00 0.00 0.00 0.00 0.00 0.00 0.00 0.00
0.00 0.00 0.00 0.00 0.00 0.00 0.01 0.06 0.07 0.04 0.07 0.08 0.04 0.04 0.03 0.03 0.03 0.04 0.02 0.01 0.01 0.00 0.00 0.00 0.00 0.01 0.03 0.03 0.02 0.01 0.00 0.00 0.00 0.00 0.00 0.00 0.00 0.00 0.00 0.00 0.00 0.00 0.00
0.00 0.00 0.00 0.00 0.00 0.00 0.00 0.01 0.04 0.05 0.04 0.08 0.08 0.08 0.10 0.09 0.08 0.04 0.02 0.02 0.04 0.03 0.01 0.00 0.00 0.04 0.04 0.03 0.03 0.03 0.02 0.01 0.00 0.00 0.00 0.00 0.00 0.00 0.00 0.00 0.00 0.00 0.00
0.00 0.00 0.00 0.00 0.00 0.00 0.00 0.00 0.00 0.02 0.02 0.05 0.07 0.07 0.05 0.02 0.00 0.00 0.00 0.00 0.00 0.01 0.01 0.01 0.01 0.01 0.03 0.02 0.02 0.03 0.04 0.01 0.00 0.00 0.00 0.00 0.00 0.00 0.00 0.00 0.00 0.00 0.00
0.00 0.00 0.00 0.00 0.00 0.00 0.01 0.02 0.02 0.02 0.01 0.02 0.02 0.01 0.01 0.00 0.00 0.00 0.00 0.00 0.00 0.00 0.00 0.00 0.00 0.00 0.00 0.01 0.01 0.02 0.03 0.03 0.02 0.01 0.00 0.00 0.00 0.00 0.00 0.00 0.00 0.00 0.00
0.00 0.00 0.00 0.00 0.00 0.00 0.03 0.05 0.06 0.07 0.06 0.03 0.02 0.01 0.01 0.00 0.00 0.00 0.00 0.00 0.00 0.00 0.00 0.00 0.00 0.00 0.00 0.00 0.00 0.01 0.02 0.04 0.04 0.04 0.02 0.00 0.00 0.00 0.00 0.00 0.01 0.01 0.00
0.00 0.00 0.00 0.00 0.00 0.01 0.03 0.03 0.05 0.08 0.12 0.13 0.08 0.03 0.01 0.01 0.00 0.00 0.00 0.00 0.00 0.00 0.00 0.00 0.00 0.00 0.00 0.00 0.00 0.00 0.01 0.02 0.03 0.04 0.04 0.03 0.01 0.01 0.02 0.01 0.01 0.02 0.02
0.00 0.00 0.00 0.00 0.00 0.01 0.01 0.03 0.07 0.08 0.15 0.27 0.20 0.09 0.02 0.01 0.00 0.00 0.00 0.00 0.00 0.00 0.00 0.00 0.00 0.00 0.00 0.00 0.00 0.00 0.00 0.01 0.02 0.02 0.04 0.04 0.04 0.03 0.02 0.02 0.02 0.02 0.02
0.00 0.00 0.00 0.00 0.00 0.00 0.01 0.01 0.05 0.16 0.20 0.26 0.28 0.27 0.20 0.10 0.02 0.00 0.00 0.00 0.00 0.00 0.00 0.00 0.00 0.00 0.00 0.00 0.00 0.00 0.00 0.00 0.01 0.02 0.02 0.03 0.03 0.04 0.04 0.04 0.03 0.03 0.02
0.00 0.00 0.00 0.00 0.00 0.00 0.01 0.03 0.01 0.01 0.02 0.08 0.18 0.22 0.23 0.16 0.07 0.02 0.00 0.00 0.00 0.00 0.00 0.00 0.00 0.00 0.00 0.00 0.00 0.00 0.00 0.00 0.00 0.01 0.02 0.02 0.03 0.04 0.05 0.05 0.05 0.04 0.02
0.00 0.00 0.00 0.00 0.00 0.00 0.01 0.05 0.05 0.02 0.00 0.01 0.00 0.01 0.04 0.06 0.05 0.01 0.00 0.00 0.00 0.00 0.00 0.00 0.00 0.00 0.01 0.02 0.02 0.02 0.01 0.00 0.00 0.00 0.01 0.05 0.03 0.04 0.05 0.06 0.07 0.05 0.04
0.00 0.00 0.00 0.00 0.00 0.00 0.00 0.00 0.00 0.00 0.00 0.00 0.00 0.00 0.00 0.00 0.00 0.00 0.00 0.00 0.00 0.00 0.00 0.00 0.00 0.00 0.03 0.03 0.02 0.03 0.01 0.00 0.00 0.00 0.00 0.04 0.06 0.04 0.05 0.06 0.06 0.06 0.05
0.00 0.00 0.00 0.00 0.00 0.00 0.00 0.00 0.00 0.00 0.00 0.00 0.00 0.00 0.00 0.00 0.00 0.00 0.00 0.00 0.00 0.00 0.00 0.00 0.00 0.01 0.01 0.01 0.03 0.05 0.01 0.00 0.00 0.00 0.00 0.02 0.05 0.07 0.06 0.05 0.07 0.09 0.08
0.00 0.00 0.00 0.00 0.00 0.00 0.00 0.00 0.00 0.00 0.00 0.00 0.00 0.00 0.00 0.00 0.00 0.00 0.00 0.00 0.00 0.00 0.00 0.00 0.00 0.00 0.00 0.01 0.02 0.04 0.01 0.04 0.03 0.01 0.00 0.01 0.01 0.03 0.05 0.05 0.04 0.06 0.11
0.00 0.00 0.00 0.00 0.00 0.00 0.00 0.00 0.00 0.00 0.00 0.00 0.00 0.00 0.00 0.00 0.00 0.00 0.00 0.00 0.00 0.00 0.00 0.00 0.00 0.00 0.00 0.01 0.02 0.03 0.01 0.06 0.06 0.03 0.02 0.01 0.00 0.01 0.02 0.03 0.04 0.04 0.05
0.00 0.00 0.00 0.00 0.00 0.00 0.00 0.00 0.00 0.00 0.00 0.00 0.00 0.00 0.00 0.00 0.00 0.00 0.00 0.00 0.00 0.00 0.00 0.00 0.00 0.00 0.00 0.02 0.03 0.05 0.04 0.12 0.17 0.15 0.12 0.10 0.06 0.03 0.02 0.02 0.02 0.03 0.04
0.00 0.00 0.00 0.00 0.00 0.00 0.00 0.00 0.00 0.00 0.00 0.00 0.00 0.00 0.00 0.00 0.00 0.00 0.00 0.00 0.00 0.00 0.00 0.00 0.00 0.00 0.00 0.02 0.04 0.06 0.07 0.07 0.09 0.16 0.21 0.21 0.19 0.16 0.10 0.08 0.04 0.04 0.04
0.00 0.00 0.00 0.00 0.00 0.00 0.00 0.00 0.00 0.00 0.00 0.00 0.00 0.00 0.00 0.00 0.00 0.00 0.00 0.00 0.00 0.00 0.00 0.00 0.00 0.00 0.00 0.00 0.00 0.02 0.05 0.07 0.07 0.10 0.15 0.22 0.22 0.20 0.23 0.30 0.26 0.18 0.10
0.00 0.00 0.00 0.00 0.00 0.00 0.00 0.00 0.00 0.00 0.00 0.00 0.00 0.00 0.00 0.00 0.00 0.00 0.00 0.00 0.00 0.00 0.00 0.00 0.00 0.00 0.00 0.00 0.00 0.00 0.00 0.02 0.04 0.08 0.16 0.22 0.24 0.21 0.23 0.34 0.45 0.49 0.37
0.00 0.00 0.00 0.00 0.00 0.00 0.00 0.00 0.00 0.00 0.00 0.00 0.00 0.00 0.00 0.00 0.00 0.00 0.00 0.00 0.00 0.00 0.00 0.00 0.00 0.00 0.00 0.00 0.00 0.00 0.00 0.00 0.00 0.02 0.05 0.09 0.15 0.17 0.22 0.26 0.29 0.31 0.36
0.00 0.00 0.00 0.00 0.00 0.00 0.00 0.00 0.00 0.00 0.00 0.00 0.00 0.00 0.00 0.00 0.00 0.00 0.00 0.00 0.00 0.00 0.00 0.00 0.00 0.00 0.00 0.00 0.00 0.00 0.00 0.00 0.01 0.02 0.01 0.02 0.03 0.05 0.08 0.13 0.19 0.25 0.24
0.00 0.00 0.00 0.00 0.00 0.00 0.00 0.00 0.00 0.00 0.00 0.00 0.00 0.00 0.00 0.00 0.00 0.00 0.00 0.00 0.00 0.00 0.00 0.00 0.00 0.00 0.00 0.00 0.00 0.00 0.00 0.00 0.00 0.00 0.01 0.01 0.03 0.03 0.03 0.05 0.09 0.13 0.17
0.00 0.00 0.00 0.00 0.00 0.00 0.00 0.00 0.00 0.00 0.00 0.00 0.00 0.00 0.00 0.00 0.00 0.00 0.00 0.00 0.00 0.00 0.00 0.00 0.00 0.00 0.00 0.00 0.00 0.00 0.00 0.00 0.00 0.00 0.00 0.01 0.01 0.03 0.01 0.02 0.03 0.04 0.07
0.00 0.00 0.00 0.00 0.00 0.00 0.00 0.00 0.00 0.00 0.00 0.00 0.00 0.00 0.00 0.00 0.00 0.00 0.00 0.00 0.00 0.00 0.00 0.00 0.00 0.00 0.00 0.00 0.01 0.01 0.01 0.00 0.00 0.00 0.00 0.00 0.00 0.00 0.00 0.00 0.01 0.02 0.04
0.00 0.00 0.00 0.00 0.00 0.00 0.00 0.00 0.00 0.00 0.00 0.00 0.00 0.00 0.00 0.00 0.00 0.00 0.00 0.00 0.00 0.00 0.00 0.00 0.00 0.00 0.00 0.00 0.00 0.00 0.00 0.00 0.00 0.00 0.00 0.00 0.00 0.00 0.00 0.00 0.00 0.00 0.01
0.00 0.00 0.00 0.00 0.00 0.00 0.00 0.00 0.00 0.00 0.00 0.00 0.00 0.00 0.00 0.00 0.00 0.00 0.00 0.00 0.00 0.00 0.00 0.00 0.00 0.00 0.00 0.00 0.00 0.00 0.00 0.00 0.00 0.00 0.00 0.00 0.00 0.00 0.00 0.00 0.00 0.00 0.00
MSLP
1015.80 1015.36 1015.09 1014.92 1014.73 1014.55 1014.51 1014.49 1014.41 1014.21 1014.14 1013.95 1013.99 1014.19 1014.29 1014.37 1014.67 1014.84 1014.87 1014.96 1015.04 1015.11 1015.19 1015.29 1015.23 1015.18 1015.28 1015.46 1015.60 1015.76 1015.95 1016.13 1016.30 1016.42 1016.55 1016.79 1017.07 1017.29 1017.35 1017.34 1017.41 1017.57 1017.75
1015.67 1015.39 1015.16 1014.79 1014.51 1014.26 1014.00 1014.05 1014.09 1014.03 1013.87 1013.80 1013.83 1013.69 1013.67 1013.83 1014.06 1014.20 1014.33 1014.42 1014.59 1014.63 1014.70 1014.75 1014.82 1014.76 1014.71 1014.78 1015.02 1015.11 1015.31 1015.45 1015.66 1015.84 1016.04 1016.15 1016.34 1016.61 1016.87 1016.95 1016.96 1017.07 1017.24
1015.53 1015.19 1015.03 1014.78 1014.43 1014.14 1013.89 1013.66 1013.53 1013.53 1013.64 1013.64 1013.56 1013.44 1013.37 1013.45 1013.60 1013.90 1013.96 1014.07 1013.98 1014.14 1014.15 1014.27 1014.30 1014.20 1014.23 1014.25 1014.14 1014.35 1014.63 1014.81 1014.88 1015.07 1015.22 1015.51 1015.75 1015.90 1016.12 1016.31 1016.44 1016.57 1016.69
1015.38 1015.11 1014.91 1014.57 1014.12 1013.85 1013.64 1013.61 1013.49 1013.43 1013.48 1013.40 1013.38 1013.25 1013.28 1013.08 1013.01 1013.38 1013.40 1013.43 1013.49 1013.46 1013.46 1013.23 1013.07 1013.28 1013.36 1013.26 1013.40 1013.49 1013.68 1013.90 1014.12 1014.25 1014.42 1014.65 1014.96 1015.27 1015.48 1015.61 1015.83 1015.99 1016.13
1015.55 1015.23 1014.79 1014.36 1013.96 1013.71 1013.47 1013.41 1013.38 1013.46 1013.46 1013.35 1013.31 1013.02 1013.06 1013.04 1013.03 1013.03 1013.11 1013.01 1013.02 1013.07 1013.16 1012.98 1012.91 1012.69 1012.73 1012.45 1012.45 1012.56 1012.71 1012.94 1013.17 1013.37 1013.60 1013.84 1014.06 1014.36 1014.65 1014.93 1015.12 1015.30 1015.50
1016.03 1015.63 1015.06 1014.68 1014.15 1013.85 1013.77 1013.51 1013.21 1013.56 1013.43 1013.25 1013.12 1013.01 1012.90 1012.74 1012.73 1012.68 1012.66 1012.62 1012.71 1012.77 1012.72 1012.67 1012.48 1012.36 1012.26 1012.11 1011.94 1011.78 1011.70 1011.96 1012.16 1012.26 1012.65 1012.85 1013.16 1013.37 1013.69 1013.92 1014.24 1014.58 1014.74
1016.67 1016.22 1015.67 1015.36 1014.88 1014.55 1014.40 1014.13 1013.64 1013.72 1013.80 1013.75 1013.20 1012.86 1012.74 1012.58 1012.61 1012.58 1012.65 1012.70 1012.61 1012.37 1012.37 1012.38 1012.37 1012.19 1011.88 1011.63 1011.52 1011.39 1011.22 1011.09 1011.16 1011.30 1011.59 1011.81 1012.12 1012.37 1012.63 1012.94 1013.22 1013.50 1013.92
1017.29 1016.87 1016.40 1016.07 1015.92 1015.57 1015.26 1014.86 1014.59 1014.21 1014.18 1014.11 1014.27 1014.04 1013.58 1013.33 1012.93 1012.73 1012.55 1012.47 1012.35 1012.10 1012.11 1011.92 1011.84 1011.74 1011.56 1011.28 1011.04 1010.77 1010.69 1010.52 1010.43 1010.41 1010.49 1010.66 1010.85 1011.21 1011.45 1011.67 1012.07 1012.37 1012.70
1017.61 1017.36 1017.17 1016.88 1016.61 1016.33 1016.25 1016.09 1015.86 1015.35 1014.96 1014.79 1014.56 1014.91 1014.41 1014.34 1014.12 1012.81 1012.75 1012.59 1012.70 1012.67 1012.45 1012.11 1011.58 1011.22 1011.04 1010.79 1010.50 1010.21 1009.93 1009.89 1009.73 1009.56 1009.38 1009.48 1009.66 1009.91 1010.13 1010.48 1010.80 1011.11 1011.49
1018.18 1017.81 1017.46 1017.36 1017.24 1017.19 1017.11 1016.92 1016.56 1016.31 1016.04 1015.96 1015.52 1015.30 1015.43 1015.45 1014.39 1013.43 1012.36 1012.98 1013.39 1013.21 1012.75 1012.33 1011.86 1010.93 1010.46 1010.31 1009.89 1009.62 1009.34 1009.02 1008.67 1008.53 1008.47 1008.37 1008.43 1008.62 1008.80 1009.22 1009.55 1009.86 1010.23
1018.62 1018.25 1017.98 1017.87 1017.70 1017.60 1017.41 1017.42 1017.31 1016.79 1016.95 1016.97 1017.03 1016.46 1016.44 1015.43 1015.38 1015.20 1013.58 1013.59 1013.26 1013.25 1012.87 1012.72 1012.27 1011.41 1010.58 1011.08 1011.07 1010.97 1010.83 1010.07 1008.51 1007.81 1007.59 1007.27 1007.22 1007.39 1007.52 1007.74 1008.18 1008.45 1008.82
1019.18 1018.88 1018.57 1018.54 1018.32 1018.07 1017.81 1017.62 1017.71 1017.53 1017.35 1017.38 1017.19 1016.86 1016.74 1016.38 1016.40 1016.06 1014.91 1014.51 1014.38 1014.12 1012.88 1012.48 1012.51 1012.12 1011.98 1011.70 1011.43 1011.15 1010.31 1009.63 1008.96 1007.95 1006.93 1006.36 1006.19 1006.29 1006.36 1006.52 1006.71 1007.08 1007.39
1019.75 1019.60 1019.35 1019.24 1018.99 1018.66 1018.42 1018.20 1018.16 1018.03 1017.73 1017.48 1017.35 1017.28 1017.07 1016.58 1016.51 1016.39 1016.14 1016.05 1015.40 1014.11 1013.13 1012.67 1012.81 1012.45 1012.46 1012.23 1011.70 1011.58 1010.51 1009.23 1008.96 1008.11 1006.75 1005.78 1005.36 1005.22 1005.41 1005.44 1005.48 1005.75 1006.16
1020.11 1020.08 1019.95 1019.75 1019.55 1019.32 1019.17 1018.97 1018.81 1018.56 1018.32 1018.26 1018.07 1017.91 1017.80 1017.69 1017.74 1017.52 1017.41 1016.86 1015.72 1014.77 1014.31 1013.79 1013.20 1013.15 1012.96 1012.66 1012.20 1011.51 1010.71 1009.61 1008.86 1008.08 1007.37 1005.68 1004.94 1004.44 1004.33 1004.31 1004.43 1004.69 1004.88
1020.17 1020.33 1020.34 1020.29 1020.15 1020.03 1019.83 1019.65 1019.55 1019.39 1019.16 1018.88 1018.63 1018.38 1018.11 1017.72 1017.38 1017.03 1016.85 1017.10 1017.22 1016.20 1015.22 1014.26 1014.45 1013.87 1013.63 1013.10 1012.41 1011.39 1010.67 1009.77 1008.54 1008.42 1007.83 1006.47 1005.34 1003.99 1003.65 1003.48 1003.32 1003.57 1003.71
1020.39 1020.37 1020.34 1020.26 1020.18 1020.05 1019.96 1019.91 1019.85 1019.72 1019.50 1019.31 1019.06 1018.85 1018.64 1018.42 1018.15 1017.94 1017.78 1017.55 1017.32 1017.14 1016.46 1015.30 1014.83 1014.43 1013.82 1013.09 1012.11 1011.53 1010.58 1009.60 1008.75 1008.65 1007.76 1007.13 1004.86 1004.42 1003.15 1002.89 1002.69 1002.62 1002.92
1020.42 1020.32 1020.25 1020.20 1020.15 1020.05 1019.90 1019.74 1019.59 1019.44 1019.34 1019.28 1019.15 1019.03 1018.77 1018.48 1018.30 1018.07 1017.86 1017.61 1017.31 1017.05 1016.45 1015.40 1014.98 1014.31 1013.67 1013.01 1012.27 1011.54 1010.56 1009.90 1009.43 1008.96 1008.05 1006.73 1004.91 1004.64 1002.94 1002.58 1001.80 1001.79 1001.84
1020.57 1020.61 1020.61 1020.55 1020.43 1020.29 1020.06 1019.88 1019.73 1019.58 1019.56 1019.48 1019.36 1019.19 1018.93 1018.56 1018.35 1018.07 1017.86 1017.62 1017.23 1016.73 1016.25 1015.57 1014.84 1014.40 1013.88 1013.19 1012.59 1011.74 1010.97 1010.45 1010.09 1008.83 1007.96 1006.95 1005.27 1005.45 1003.64 1002.91 1002.03 1000.85 1000.67
1020.44 1020.38 1020.39 1020.38 1020.27 1020.12 1020.01 1019.85 1019.71 1019.51 1019.41 1019.25 1019.14 1019.07 1018.86 1018.59 1018.36 1018.02 1017.62 1017.19 1016.71 1016.15 1015.80 1015.49 1014.80 1014.28 1013.70 1013.14 1012.52 1011.90 1011.31 1010.57 1009.71 1009.07 1007.97 1007.12 1006.11 1005.76 1004.99 1003.43 1002.66 1001.95 1000.37
1020.38 1020.41 1020.43 1020.44 1020.34 1020.10 1019.80 1019.48 1019.29 1019.16 1019.03 1018.94 1018.87 1018.80 1018.61 1018.35 1018.05 1017.69 1017.25 1016.96 1016.34 1016.00 1015.60 1015.24 1014.80 1014.23 1013.78 1013.10 1012.63 1011.84 1010.97 1010.69 1009.95 1008.98 1008.16 1007.66 1006.65 1005.72 1005.19 1004.41 1004.09 1002.81 1001.61
1020.27 1020.31 1020.31 1020.25 1020.17 1020.02 1019.75 1019.43 1019.14 1019.04 1018.98 1018.81 1018.63 1018.54 1018.37 1018.06 1017.67 1017.35 1016.97 1016.62 1016.22 1015.79 1015.47 1015.14 1014.62 1014.05 1013.70 1013.05 1012.66 1011.92 1011.19 1010.19 1009.38 1008.50 1008.05 1007.55 1007.03 1006.20 1005.54 1004.68 1004.04 1003.15 1002.64
1020.21 1020.22 1020.25 1020.29 1020.21 1019.96 1019.57 1019.11 1018.82 1018.75 1018.69 1018.66 1018.59 1018.28 1018.08 1017.79 1017.46 1017.09 1016.74 1016.27 1015.78 1015.51 1015.28 1015.01 1014.69 1014.34 1013.79 1013.38 1012.65 1012.11 1011.39 1010.49 1009.37 1008.79 1008.49 1007.58 1007.15 1006.52 1005.84 1005.07 1004.21 1003.68 1002.89
1020.15 1020.11 1020.05 1020.00 1019.88 1019.61 1019.22 1018.91 1018.70 1018.71 1018.72 1018.68 1018.42 1018.13 1017.85 1017.52 1017.18 1016.88 1016.47 1015.99 1015.70 1015.35 1015.02 1014.73 1014.49 1014.18 1013.58 1013.08 1012.55 1011.84 1011.34 1010.75 1010.17 1009.26 1009.13 1008.01 1007.08 1006.46 1005.91 1005.06 1004.23 1003.51 1003.05
1019.72 1019.76 1019.70 1019.67 1019.64 1019.36 1019.10 1018.74 1018.59 1018.61 1018.50 1018.35 1018.17 1017.87 1017.58 1017.18 1016.82 1016.32 1015.88 1015.56 1015.19 1014.82 1014.53 1014.19 1013.83 1013.39 1012.94 1012.40 1012.04 1011.62 1011.17 1010.75 1010.19 1009.54 1009.12 1008.42 1007.04 1006.72 1005.99 1005.15 1004.15 1003.39 1003.12
1019.35 1019.46 1019.46 1019.48 1019.42 1019.08 1018.77 1018.58 1018.23 1018.26 1018.20 1017.99 1017.72 1017.45 1017.13 1016.71 1016.34 1015.69 1015.19 1014.96 1014.62 1014.30 1013.80 1013.39 1012.97 1012.63 1012.28 1011.89 1011.55 1011.27 1011.06 1010.79 1009.96 1009.48 1008.83 1008.43 1007.56 1006.95 1006.08 1004.89 1004.24 1003.95 1003.37
1018.79 1019.07 1019.14 1019.19 1019.10 1018.88 1018.57 1018.23 1017.96 1017.85 1017.80 1017.60 1017.29 1016.95 1016.60 1016.16 1015.66 1015.11 1014.65 1014.47 1014.13 1013.69 1013.31 1012.84 1012.59 1012.25 1012.04 1011.84 1011.32 1011.24 1011.14 1010.85 1010.24 1009.47 1008.61 1008.68 1008.17 1007.65 1006.39 1004.91 1004.46 1004.16 1003.59
Thickness
5668 5669 5670 5670 5671 5672 5672 5671 5671 5672 5674 5676 5674 5673 5673 5673 5670 5669 5670 5670 5671 5670 5669 5668 5669 5671 5672 5671 5670 5670 5670 5669 5669 5668 5668 5667 5665 5663 5664 5666 5666 5665 5663
5657 5658 5659 5659 5661 5662 5663 5662 5662 5663 5665 5665 5666 5667 5668 5667 5665 5665 5664 5664 5664 5665 5665 5663 5662 5664 5666 5667 5666 5666 5665 5666 5666 5665 5664 5663 5663 5661 5659 5660 5661 5661 5660
5644 5646 5646 5646 5646 5647 5649 5651 5653 5654 5654 5654 5656 5659 5659 5658 5658 5657 5658 5657 5658 5659 5660 5659 5658 5659 5661 5662 5663 5663 5662 5661 5663 5662 5662 5660 5659 5658 5657 5656 5656 5656 5656
5629 5629 5630 5632 5634 5635 5634 5635 5637 5639 5641 5643 5645 5648 5648 5649 5651 5649 5650 5653 5653 5653 5655 5657 5660 5658 5658 5660 5660 5660 5660 5659 5659 5659 5659 5658 5656 5654 5653 5654 5653 5652 5652
5610 5609 5610 5613 5615 5617 5619 5619 5621 5623 5624 5627 5629 5634 5635 5638 5639 5639 5642 5644 5645 5646 5646 5648 5649 5654 5655 5657 5657 5656 5658 5657 5657 5656 5655 5655 5655 5653 5651 5650 5650 5649 5649
5593 5589 5588 5588 5590 5593 5594 5598 5604 5603 5608 5612 5615 5619 5621 5624 5625 5629 5631 5632 5634 5636 5637 5639 5643 5645 5647 5649 5651 5652 5653 5654 5652 5653 5652 5651 5651 5651 5650 5649 5648 5646 5646
5575 5568 5563 5561 5563 5566 5568 5572 5579 5582 5586 5590 5600 5603 5608 5612 5614 5615 5616 5619 5621 5623 5627 5629 5630 5633 5636 5638 5640 5643 5645 5647 5646 5647 5647 5647 5647 5647 5647 5647 5646 5646 5644
5560 5550 5544 5540 5537 5540 5544 5549 5555 5562 5568 5571 5576 5581 5586 5593 5597 5601 5604 5607 5609 5613 5617 5618 5620 5621 5624 5627 5630 5632 5635 5638 5639 5641 5642 5643 5644 5643 5643 5643 5643 5643 5643
5551 5541 5535 5530 5524 5524 5525 5527 5531 5537 5546 5552 5558 5559 5568 5574 5575 5587 5589 5592 5594 5596 5599 5600 5605 5610 5612 5615 5619 5624 5628 5628 5631 5634 5637 5639 5641 5641 5641 5640 5640 5640 5640
5542 5536 5532 5526 5521 5518 5514 5512 5512 5515 5520 5528 5538 5539 5539 5544 5562 5572 5581 5575 5572 5576 5579 5583 5588 5595 5599 5600 5606 5611 5615 5620 5627 5629 5630 5633 5635 5637 5639 5637 5636 5636 5635
5536 5532 5526 5521 5518 5513 5510 5504 5501 5504 5506 5511 5514 5519 5523 5533 5534 5541 5561 5559 5560 5560 5563 5563 5569 5574 5580 5579 5581 5583 5591 5600 5613 5618 5620 5626 5630 5631 5634 5635 5634 5633 5633
5530 5525 5521 5515 5511 5508 5505 5502 5496 5495 5502 5504 5507 5514 5515 5521 5520 5522 5535 5543 5544 5542 5547 5550 5548 5554 5555 5557 5558 5563 5574 5583 5589 5597 5608 5619 5623 5624 5627 5628 5630 5630 5630
5523 5519 5514 5509 5505 5502 5499 5496 5495 5495 5498 5501 5504 5503 5504 5509 5508 5507 5512 5510 5516 5532 5535 5529 5528 5536 5531 5531 5538 5541 5553 5565 5569 5577 5592 5604 5611 5615 5617 5620 5623 5625 5624
5517 5513 5508 5504 5500 5497 5493 5491 5490 5490 5492 5491 5492 5492 5491 5490 5488 5490 5488 5491 5498 5508 5510 5509 5512 5509 5508 5511 5512 5520 5529 5539 5548 5557 5565 5582 5593 5603 5608 5613 5615 5616 5619
5512 5506 5501 5497 5493 5490 5487 5484 5481 5480 5479 5479 5478 5478 5478 5478 5479 5480 5478 5473 5471 5482 5486 5491 5485 5487 5487 5488 5492 5503 5509 5517 5530 5535 5542 5555 5569 5588 5594 5600 5606 5608 5611
5505 5500 5495 5491 5487 5484 5481 5477 5474 5472 5471 5470 5470 5469 5467 5465 5464 5462 5460 5459 5459 5458 5461 5469 5470 5470 5473 5476 5480 5485 5493 5503 5510 5512 5521 5529 5553 5563 5578 5584 5592 5598 5601
5499 5495 5491 5486 5482 5478 5474 5471 5468 5466 5463 5461 5459 5457 5456 5454 5452 5450 5447 5444 5444 5443 5447 5453 5450 5453 5457 5461 5465 5469 5476 5483 5488 5493 5501 5511 5535 5542 5558 5568 5582 5587 5593
5492 5488 5483 5478 5474 5469 5466 5462 5459 5456 5452 5449 5447 5444 5441 5440 5436 5434 5431 5428 5428 5427 5430 5434 5434 5434 5435 5441 5445 5452 5459 5461 5465 5476 5486 5497 5518 5520 5537 5549 5563 5579 5584
5487 5482 5476 5470 5466 5461 5457 5453 5450 5447 5443 5440 5437 5432 5427 5424 5420 5417 5415 5415 5414 5414 5412 5414 5418 5416 5419 5422 5426 5431 5437 5444 5451 5460 5469 5480 5493 5500 5511 5529 5542 5552 5570
5479 5473 5467 5461 5456 5451 5448 5446 5442 5439 5434 5430 5424 5418 5413 5409 5405 5402 5400 5397 5397 5393 5392 5392 5395 5397 5397 5401 5405 5413 5420 5423 5433 5442 5451 5460 5470 5481 5493 5505 5513 5529 5545
5471 5465 5459 5453 5447 5442 5438 5434 5431 5427 5421 5416 5411 5405 5400 5396 5393 5388 5384 5378 5375 5372 5370 5371 5374 5377 5375 5378 5380 5389 5398 5410 5417 5428 5436 5442 5451 5462 5473 5484 5497 5511 5522
5461 5455 5449 5442 5435 5431 5428 5426 5423 5415 5409 5403 5396 5391 5385 5380 5374 5369 5365 5363 5362 5358 5355 5354 5354 5353 5354 5353 5358 5362 5370 5381 5398 5402 5410 5424 5429 5440 5452 5464 5477 5489 5502
5450 5445 5440 5433 5426 5421 5419 5415 5410 5401 5393 5386 5381 5375 5368 5363 5357 5353 5351 5350 5346 5344 5341 5339 5337 5334 5335 5335 5339 5344 5347 5356 5365 5378 5381 5399 5409 5423 5431 5443 5458 5472 5483
5444 5437 5431 5424 5416 5412 5408 5404 5397 5388 5380 5373 5367 5360 5354 5349 5345 5345 5344 5340 5337 5332 5329 5325 5321 5318 5316 5317 5318 5322 5327 5332 5340 5350 5357 5369 5390 5400 5411 5424 5439 5453 5464
5435 5427 5421 5413 5406 5400 5397 5391 5386 5376 5367 5360 5353 5346 5343 5340 5338 5339 5338 5334 5330 5324 5320 5315 5309 5303 5298 5295 5295 5298 5302 5307 5318 5327 5335 5343 5363 5376 5390 5405 5421 5431 5444
5428 5418 5411 5403 5396 5389 5385 5380 5373 5364 5356 5348 5340 5337 5335 5334 5333 5332 5329 5324 5320 5316 5312 5306 5298 5289 5279 5274 5273 5271 5273 5279 5288 5299 5311 5314 5329 5343 5365 5384 5398 5410 5425